Weather History for Kerrville, TX

Change the Weather History Date:

Tuesday, September 25, 2012

  Actual Average (KHDO) Record (KHDO)
Temperature  
Mean Temperature 78 °F -  
Max Temperature 86 °F 86 °F 105 °F (2011)
Min Temperature 71 °F 61 °F 50 °F (2001)
Cooling Degree Days 14    
Growing Degree Days 28 (Base 50)    
Moisture  
Dew Point 64 °F    
Average Humidity 66    
Maximum Humidity 83    
Minimum Humidity 40    
Precipitation  
Precipitation 0.00 in - - ()
Sea Level Pressure  
Sea Level Pressure 30.03 in    
Wind  
Wind Speed 13 mph (SSE)    
Max Wind Speed 20 mph    
Max Gust Speed 30 mph    
Visibility 10 miles    
Events      
Averages and records for this station are not official NWS values.
T = Trace of Precipitation, MM = Missing Value Source: NWS Daily Summary

Daily Weather History Graph

Daily Weather History Graph

Search for Another Location

Airport:

Trip Planner

Search our weather history database for the weather conditions in past years. The results will help you decide how hot, cold, wet, or windy it might be!

Date:

Astronomy

Sep. 25, 2012 Rise Set
Actual Time 7:26 AM CDT 7:28 PM CDT
Civil Twilight 7:02 AM CDT 7:52 PM CDT
Nautical Twilight 6:34 AM CDT 8:20 PM CDT
Astronomical Twilight 6:07 AM CDT 8:47 PM CDT
Moon 4:39 PM CDT (9/25) 3:07 AM CDT (9/25)
Length of Visible Light 12h 49m
Length of Day
12h 01m
Waxing Gibbous, 80% of the Moon is Illuminated
Sep 25
Waxing Gibbous
Sep 29
Full
Oct 8
Last Quarter
Oct 15
New
Oct 21
First Quarter

Hourly Weather History & Observations

Time (CDT) Temp. Heat Index Dew Point Humidity Pressure Visibility Wind Dir Wind Speed Gust Speed Precip Events Conditions
12:35 AM 71.6 °F - 62.6 °F 73% 30.08 in 10.0 mi SSE 10.4 mph - N/A   Clear
1:15 AM 71.6 °F - 64.4 °F 78% 30.08 in 10.0 mi SSE 12.7 mph - N/A   Clear
1:35 AM 71.6 °F - 64.4 °F 78% 30.08 in 10.0 mi SSE 17.3 mph 20.7 mph N/A   Clear
1:55 AM 71.6 °F - 64.4 °F 78% 30.08 in 10.0 mi SSE 16.1 mph 20.7 mph N/A   Scattered Clouds
2:15 AM 71.6 °F - 66.2 °F 83% 30.08 in 10.0 mi SSE 15.0 mph 20.7 mph N/A   Mostly Cloudy
2:35 AM 71.6 °F - 66.2 °F 83% 30.08 in 10.0 mi SSE 17.3 mph - N/A   Scattered Clouds
2:55 AM 71.6 °F - 66.2 °F 83% 30.07 in 10.0 mi SSE 17.3 mph 21.9 mph N/A   Mostly Cloudy
3:15 AM 71.6 °F - 66.2 °F 83% 30.07 in 10.0 mi SSE 13.8 mph 21.9 mph N/A   Mostly Cloudy
3:35 AM 71.6 °F - 66.2 °F 83% 30.07 in 10.0 mi SSE 12.7 mph - N/A   Mostly Cloudy
3:55 AM 71.6 °F - 66.2 °F 83% 30.06 in 10.0 mi SSE 10.4 mph 18.4 mph N/A   Mostly Cloudy
4:15 AM 71.6 °F - 66.2 °F 83% 30.06 in 10.0 mi SSE 12.7 mph 16.1 mph N/A   Overcast
4:35 AM 71.6 °F - 66.2 °F 83% 30.06 in 10.0 mi SSE 10.4 mph - N/A   Overcast
4:55 AM 71.6 °F - 66.2 °F 83% 30.06 in 10.0 mi SSE 10.4 mph - N/A   Overcast
5:15 AM 71.6 °F - 66.2 °F 83% 30.05 in 10.0 mi South 8.1 mph 16.1 mph N/A   Overcast
5:35 AM 71.6 °F - 66.2 °F 83% 30.05 in 10.0 mi South 12.7 mph - N/A   Mostly Cloudy
5:55 AM 71.6 °F - 66.2 °F 83% 30.05 in 10.0 mi South 9.2 mph - N/A   Mostly Cloudy
6:15 AM 71.6 °F - 66.2 °F 83% 30.05 in 10.0 mi South 6.9 mph - N/A   Overcast
6:35 AM 71.6 °F - 66.2 °F 83% 30.06 in 10.0 mi South 8.1 mph - N/A   Overcast
6:55 AM 71.6 °F - 66.2 °F 83% 30.06 in 10.0 mi South 11.5 mph - N/A   Mostly Cloudy
7:15 AM 71.6 °F - 66.2 °F 83% 30.06 in 10.0 mi South 9.2 mph - N/A   Mostly Cloudy
7:35 AM 71.6 °F - 66.2 °F 83% 30.06 in 10.0 mi South 11.5 mph 19.6 mph N/A   Overcast
7:55 AM 71.6 °F - 66.2 °F 83% 30.06 in 10.0 mi South 10.4 mph - N/A   Mostly Cloudy
8:15 AM 71.6 °F - 66.2 °F 83% 30.06 in 10.0 mi South 12.7 mph - N/A   Mostly Cloudy
8:35 AM 71.6 °F - 66.2 °F 83% 30.06 in 10.0 mi South 10.4 mph - N/A   Scattered Clouds
8:55 AM 71.6 °F - 66.2 °F 83% 30.06 in 10.0 mi South 13.8 mph 20.7 mph N/A   Mostly Cloudy
9:15 AM 71.6 °F - 66.2 °F 83% 30.07 in 10.0 mi South 12.7 mph - N/A   Mostly Cloudy
9:35 AM 73.4 °F - 68.0 °F 83% 30.07 in 10.0 mi South 16.1 mph - N/A   Overcast
9:55 AM 73.4 °F - 66.2 °F 78% 30.07 in 10.0 mi South 19.6 mph 24.2 mph N/A   Mostly Cloudy
10:15 AM 73.4 °F - 66.2 °F 78% 30.07 in 10.0 mi South 17.3 mph 20.7 mph N/A   Mostly Cloudy
10:35 AM 77.0 °F - 68.0 °F 74% 30.08 in 10.0 mi South 19.6 mph 23.0 mph N/A   Mostly Cloudy
10:55 AM 78.8 °F - 66.2 °F 65% 30.08 in 10.0 mi South 18.4 mph 25.3 mph N/A   Scattered Clouds
11:15 AM 78.8 °F - 66.2 °F 65% 30.08 in 10.0 mi South 16.1 mph 19.6 mph N/A   Mostly Cloudy
11:35 AM 77.0 °F - 64.4 °F 65% 30.07 in 10.0 mi South 17.3 mph 20.7 mph N/A   Mostly Cloudy
11:55 AM 78.8 °F - 64.4 °F 61% 30.06 in 10.0 mi SSW 16.1 mph 20.7 mph N/A   Scattered Clouds
12:15 PM 80.6 °F 82.3 °F 64.4 °F 58% 30.06 in 10.0 mi South 16.1 mph 21.9 mph N/A   Scattered Clouds
12:35 PM 80.6 °F 81.8 °F 62.6 °F 54% 30.05 in 10.0 mi South 17.3 mph - N/A   Scattered Clouds
12:55 PM 80.6 °F 82.3 °F 64.4 °F 58% 30.05 in 10.0 mi South 16.1 mph 25.3 mph N/A   Scattered Clouds
1:15 PM 82.4 °F 83.4 °F 62.6 °F 51% 30.04 in 10.0 mi South 18.4 mph 29.9 mph N/A   Scattered Clouds
2:15 PM 82.4 °F 83.4 °F 62.6 °F 51% 30.00 in 10.0 mi South 19.6 mph 27.6 mph N/A   Scattered Clouds
2:35 PM 82.4 °F 83.4 °F 62.6 °F 51% 29.99 in 10.0 mi South 17.3 mph 25.3 mph N/A   Scattered Clouds
2:55 PM 82.4 °F 83.4 °F 62.6 °F 51% 29.98 in 10.0 mi South 17.3 mph 25.3 mph N/A   Scattered Clouds
3:15 PM 84.2 °F 84.4 °F 60.8 °F 45% 29.98 in 10.0 mi South 19.6 mph 24.2 mph N/A   Scattered Clouds
3:35 PM 84.2 °F 85.0 °F 62.6 °F 48% 29.97 in 10.0 mi SSE 16.1 mph 23.0 mph N/A   Mostly Cloudy
3:55 PM 86.0 °F 86.6 °F 62.6 °F 45% 29.96 in 10.0 mi SSE 19.6 mph 24.2 mph N/A   Scattered Clouds
4:15 PM 86.0 °F 86.1 °F 60.8 °F 43% 29.96 in 10.0 mi South 17.3 mph 23.0 mph N/A   Scattered Clouds
4:35 PM 86.0 °F 86.1 °F 60.8 °F 43% 29.95 in 10.0 mi South 15.0 mph 23.0 mph N/A   Scattered Clouds
4:55 PM 86.0 °F 86.1 °F 60.8 °F 43% 29.95 in 10.0 mi South 16.1 mph 23.0 mph N/A   Scattered Clouds
5:15 PM 86.0 °F 86.1 °F 60.8 °F 43% 29.95 in 10.0 mi SSE 12.7 mph 20.7 mph N/A   Scattered Clouds
5:35 PM 86.0 °F 85.4 °F 59.0 °F 40% 29.95 in 10.0 mi South 15.0 mph 21.9 mph N/A   Scattered Clouds
5:55 PM 84.2 °F 83.8 °F 59.0 °F 42% 29.95 in 10.0 mi South 13.8 mph - N/A   Scattered Clouds
6:15 PM 84.2 °F 83.8 °F 59.0 °F 42% 29.95 in 10.0 mi SSE 15.0 mph 19.6 mph N/A   Clear
6:35 PM 82.4 °F 82.5 °F 59.0 °F 45% 29.95 in 10.0 mi South 10.4 mph - N/A   Clear
6:55 PM 82.4 °F 82.5 °F 59.0 °F 45% 29.95 in 10.0 mi SSE 12.7 mph - N/A   Clear
7:15 PM 80.6 °F 81.1 °F 59.0 °F 48% 29.95 in 10.0 mi SSE 10.4 mph 17.3 mph N/A   Clear
7:55 PM 78.8 °F - 60.8 °F 54% 29.95 in 10.0 mi SE 5.8 mph - N/A   Clear
8:15 PM 78.8 °F - 60.8 °F 54% 29.95 in 10.0 mi SE 4.6 mph - N/A   Clear
8:35 PM 78.8 °F - 60.8 °F 54% 29.96 in 10.0 mi ESE 4.6 mph - N/A   Clear
8:55 PM 77.0 °F - 60.8 °F 57% 29.96 in 10.0 mi East 4.6 mph - N/A   Clear
9:35 PM 73.4 °F - 60.8 °F 65% 29.99 in 10.0 mi SSE 4.6 mph - N/A   Clear
9:55 PM 77.0 °F - 60.8 °F 57% 29.99 in 10.0 mi SE 10.4 mph - N/A   Clear
10:15 PM 77.0 °F - 59.0 °F 54% 29.99 in 10.0 mi SE 16.1 mph 21.9 mph N/A   Clear
10:35 PM 77.0 °F - 60.8 °F 57% 30.00 in 10.0 mi SE 10.4 mph 18.4 mph N/A   Clear
10:55 PM 77.0 °F - 60.8 °F 57% 30.01 in 10.0 mi SSE 12.7 mph - N/A   Clear
11:15 PM 77.0 °F - 60.8 °F 57% 30.01 in 10.0 mi SE 12.7 mph 18.4 mph N/A   Clear
11:35 PM 73.4 °F - 60.8 °F 65% 30.01 in 10.0 mi SSE 10.4 mph - N/A   Clear
11:55 PM 73.4 °F - 60.8 °F 65% 30.01 in 10.0 mi SSE 12.7 mph - N/A   Clear